User: anonymous   Login
Location: Broad Creek
(39.7000°N, 76.2570°W)
Time: 09:36:20
(UTC-05:00)
Language:

ATLAS 5 CENTAUR R/B - Orbit

View from above orbital plane
View from above orbital plane
View from above satellite
View from above satellite

Ground track
Ground track

The orbit data is extracted from the following two-line orbital elements,

1 31702U 07027B   16341.22820024 0.00000070  00000-0  24692-4 0    01
2 31702  63.3712  65.0111 0250315   1.8927 358.1073 14.18528715    03
Epoch (UTC): 06 December 2016 05:28:36
Eccentricity: 0.0250315
inclination: 63.3712°
perigee height: 650 km
apogee height: 1011 km
right ascension of ascending node: 65.0111°
argument of perigee: 1.8927°
revolutions per day: 14.18528715
mean anomaly at epoch: 358.1073°
orbit number at epoch: 0

The dashed part of the orbit path shows where the satellite is in the earth's shadow,  

DLR